| time (UTC) | temp C | wind direction | speed KPH | gust KPH | rain 1hr cm | rain 24hr cm | rain mn cm | humidity % | barometer mb |
| 20260905223010 | 24 | 141 | 0.0 | 0.0 | 0.00 | 1.85 | 1.85 | 85 | 1010.2 |
| 20260905221606 | 24 | 290 | 0.0 | 0.0 | 0.00 | 1.85 | 1.85 | 85 | 1010.4 |
| 20260905204557 | 22 | 300 | 0.0 | 0.0 | 0.00 | 1.85 | 1.85 | 78 | 1011.0 |
| 20260905200033 | 22 | 127 | 0.0 | 1.6 | 0.03 | 1.85 | 1.85 | 80 | 1011.3 |
| 20260905194501 | 22 | 79 | 0.0 | 0.0 | 1.83 | 1.85 | 1.85 | 81 | 1011.9 |
| 20260905193036 | 22 | 90 | 0.0 | 1.6 | 1.85 | 1.85 | 1.85 | 85 | 1011.5 |
| 20260905191542 | 22 | 110 | 0.0 | 1.6 | 1.85 | 1.85 | 1.85 | 86 | 1011.7 |
| 20260905184539 | 26 | 19 | 1.6 | 20.9 | 0.03 | 0.03 | 0.03 | 75 | 1011.7 |
| 20260905183038 | 33 | 272 | 4.8 | 19.3 | 0.00 | 0.00 | 0.00 | 51 | 1011.1 |
| 20260905181510 | 36 | 152 | 1.6 | 9.7 | 0.00 | 0.00 | 0.00 | 44 | 1010.3 |
| 20260905180042 | 36 | 295 | 1.6 | 9.7 | 0.00 | 0.00 | 0.00 | 45 | 1010.8 |
| 20260905174512 | 36 | 209 | 0.0 | 3.2 | 0.00 | 0.00 | 0.00 | 49 | 1010.9 |
| 20260905143050 | 30 | 217 | 0.0 | 4.8 | 0.00 | 0.00 | 0.00 | 69 | 1012.8 |
| 20260905140016 | 28 | 217 | 0.0 | 6.4 | 0.00 | 0.00 | 0.00 | 76 | 1013.1 |
| 20260905134553 | 28 | 226 | 0.0 | 4.8 | 0.00 | 0.00 | 0.00 | 78 | 1013.3 |
| 20260905133020 | 27 | 225 | 0.0 | 0.0 | 0.00 | 0.00 | 0.00 | 84 | 1013.3 |
| 20260905131659 | 26 | 317 | 0.0 | 3.2 | 0.00 | 0.00 | 0.00 | 85 | 1013.4 |
| 20260905130027 | 25 | 315 | 0.0 | 3.2 | 0.00 | 0.00 | 0.00 | 86 | 1013.2 |
| 20260905124602 | 25 | 80 | 0.0 | 0.0 | 0.00 | 0.00 | 0.00 | 87 | 1013.2 |
| 20260905123021 | 23 | 80 | 0.0 | 0.0 | 0.00 | 0.00 | 0.00 | 83 | 1013.1 |
| 20260905121544 | 23 | 80 | 0.0 | 0.0 | 0.00 | 0.00 | 0.00 | 81 | 1013.1 |
| 20260905120013 | 22 | 80 | 0.0 | 0.0 | 0.00 | 0.00 | 0.00 | 79 | 1013.1 |
| 20260905114545 | 22 | 80 | 0.0 | 0.0 | 0.00 | 0.00 | 0.00 | 80 | 1013.0 |
| 20260905113016 | 22 | 80 | 0.0 | 0.0 | 0.00 | 0.00 | 0.00 | 80 | 1012.7 |
| 20260905111559 | 22 | 80 | 0.0 | 0.0 | 0.00 | 0.00 | 0.00 | 80 | 1012.6 |
| 20260905110005 | 22 | 80 | 0.0 | 0.0 | 0.00 | 0.00 | 0.00 | 80 | 1012.5 |
| 20260905104535 | 22 | 80 | 0.0 | 0.0 | 0.00 | 0.00 | 0.00 | 81 | 1012.4 |
| 20260905103059 | 22 | 80 | 0.0 | 0.0 | 0.00 | 0.00 | 0.00 | 83 | 1012.2 |
| 20260905101533 | 22 | 80 | 0.0 | 0.0 | 0.00 | 0.00 | 0.00 | 85 | 1012.1 |
| 20260905100101 | 22 | 86 | 0.0 | 1.6 | 0.00 | 0.00 | 0.00 | 87 | 1012.0 |
| 20260905094524 | 22 | 104 | 0.0 | 0.0 | 0.00 | 0.00 | 0.00 | 87 | 1011.9 |
| 20260905093054 | 22 | 105 | 0.0 | 0.0 | 0.00 | 0.00 | 0.00 | 87 | 1012.0 |
| 20260905091519 | 23 | 104 | 0.0 | 0.0 | 0.00 | 0.00 | 0.00 | 87 | 1012.0 |
| 20260905090044 | 23 | 104 | 0.0 | 0.0 | 0.00 | 0.00 | 0.00 | 87 | 1012.0 |
| 20260905084513 | 23 | 104 | 0.0 | 0.0 | 0.00 | 0.00 | 0.00 | 87 | 1012.0 |
| 20260905083040 | 23 | 105 | 0.0 | 0.0 | 0.00 | 0.00 | 0.00 | 87 | 1012.1 |
| 20260905081559 | 23 | 104 | 0.0 | 0.0 | 0.00 | 0.00 | 0.00 | 87 | 1012.2 |
| 20260905080038 | 23 | 104 | 0.0 | 0.0 | 0.00 | 0.00 | 0.00 | 87 | 1012.3 |
| 20260905074558 | 23 | 104 | 0.0 | 0.0 | 0.00 | 0.00 | 0.00 | 87 | 1012.3 |
| 20260905073019 | 23 | 105 | 0.0 | 0.0 | 0.00 | 0.00 | 0.00 | 87 | 1012.4 |